NOAA 16 DEB, 42428

Orbit data source: Space-Track

NOAA 16 DEB, 42428 is space debris in SSO originally from a launch on Thu, 21 Sep 2000 UTC launched from the Air Force Western Test Range (AFWTR). Debris objects in space refer to the collection of defunct objects orbiting the Earth. Examples of debris include non-operational satellites, rocket bodies, and fragments generated from explosions, collisions, or faulty payload assembly.

Loading next visibility...
Identifier
42428, 2000-055TY
Orbit
SSO
Country
Flag of USUS
Related business
Manufacturer
Unknown
Mission
Spacecraft
Bus & Motor
Unknown
Mass
Unknown
Launch date (UTC)
2000-09-21 (26 years ago)
Launch vehicle
Unknown
Launch site
Air Force Western Test Range (AFWTR)
Object type
Payload
Rocket body
Debris
Shape & HBR
Unknown shape, 0.1 m
Radar Cross Section
Small (<0.1 m²)

Expand to show TLE details & history
Last TLE update: 2 weeks ago

TLE from 2 weeks ago
0 NOAA 16 DEB
1 42428U 00055TY  26199.12068159  .00000819  00000-0  34376-3 0  9993
2 42428  98.9730 343.5669 0025359 139.6813 220.6253 14.28584823495204
Epoch: 2026-07-18T02:53Z
TLE epoch observation values (Epoch: 2026-07-18T02:53:46.889Z)
Latitude
-0.00007°
Longitude
4.18355°
Altitude
813.214 km
Speed
7.439 km/s
True Right ascension
22h 54m 16s
True Declination
0° 00' 00"
Sunlit
Object was in full shadow at epoch
Visualization orbit readout
Latitude
Unknown
Longitude
Unknown
Altitude
Unknown
Speed
Unknown
Apparent Right ascension
Unknown
Apparent Declination
Unknown
Sunlit
N/A
Visualization observer readout
Local Sidereal Time
08:24:15
Azimuth
Unknown
Elevation
Unknown
Doppler factor
Unknown
Orbital elements
Apogee altitude
811.812 km
Perigee altitude
775.438 km
Semi-major axis
7,171.762 km
Eccentricity
0.00254
Inclination
98.973°
RAAN
343.5669°
Arg. of periapsis
139.6813°
True anomaly
220.43655°
Mean anomaly
220.6253°
Eccentric anomaly
220.53088°
Mean motion
3.57359 °/min
Orbital period
100.74 mins
BSTAR
0.00034376
Loading maneuver chart data...
Computing Atmospheric mass density...
Loading historical data...
Loading historical data...
Loading historical data...
Loading historical data...
Loading historical data...
Loading historical data...
Loading historical data...

Documentation

Showing up to 5 results
|